User: anonymous   Login
Location: Aytr�
(46.1357°N, 1.1145°W)
Time: 20:27:19
(UTC+00:00)
Language:

SKYMED 2 - Orbit

View from above orbital plane
View from above orbital plane
View from above satellite
View from above satellite

Ground track
Ground track

The orbit data is extracted from the following two-line orbital elements,

1 32376U 07059A   21136.81107544  .00000249  00000-0  37795-4 0  9995
2 32376  97.8892 321.1564 0001563  95.4625 264.6774 14.82157094726950
Epoch (UTC): 16 May 2021 19:27:56
Eccentricity: 0.0001563
inclination: 97.8892°
perigee height: 621 km
apogee height: 623 km
right ascension of ascending node: 321.1564°
argument of perigee: 95.4625°
revolutions per day: 14.82157094
mean anomaly at epoch: 264.6774°
orbit number at epoch: 72695

The dashed part of the orbit path shows where the satellite is in the earth's shadow,  

DLR